This demonstration page uses our WeatherBlox Daily Observations layout. Learn more.

Left ArrowRight Arrow

39.08367, -84.50855

Hourly Observations for November 27, 2018

Temp ( °F °C ) Dew Point ( °F °C ) Humidity (%) Winds ( mph kmh ) Pressure ( in mb ) Visibility ( mi km ) Precip ( " mm )
12:35 am 00:35 Cloudy 31 -0.6 26 -3.3 82 82 W 13 20 30.00 1016 10 16 0.00 0.03
12:53 am 00:53 Cloudy 31 -0.6 26 -3.3 82 82 W 14 22 29.98 1015 10 16 0.00 0.03
1:35 am 01:35 Cloudy 30 -1.1 24 -4.4 79 79 W 14 22 30.00 1016 10 16 0.00 0.00
1:53 am 01:53 Cloudy with Light Wintry Mix 30 -1.1 24 -4.4 79 79 WNW 13 20 29.98 1015 10 16 0.00 0.03
2:53 am 02:53 Cloudy 30 -1.1 23 -5 75 75 NW 8 13 29.98 1015 10 16 0.00 0.03
3:53 am 03:53 Cloudy 29 -1.7 24 -4.4 82 82 WNW 7 11 29.98 1015 10 16 0.00 0.00
4:53 am 04:53 Cloudy 28 -2.2 22 -5.6 78 78 NW 14 22 29.98 1015 10 16 0.00 0.00
5:53 am 05:53 Cloudy 27 -2.8 20 -6.7 75 75 WNW 12 19 29.99 1016 10 16 0.00 0.00
6:53 am 06:53 Cloudy 27 -2.8 21 -6.1 78 78 NNW 9 15 30.00 1016 10 16 0.00 0.00
7:53 am 07:53 Cloudy 27 -2.8 21 -6.1 78 78 WNW 9 15 30.01 1016 10 16 0.00 0.03
8:53 am 08:53 Cloudy with Light Snow 26 -3.3 21 -6.1 81 81 VRB 5 7 30.01 1016 3 5 0.00 0.03
9:53 am 09:53 Cloudy with Light Snow 26 -3.3 22 -5.6 84 84 W 12 19 30.02 1017 2 3 0.00 0.03
10:53 am 10:53 Cloudy with Light Snow 26 -3.3 22 -5.6 84 84 WNW 10 17 30.01 1016 3 5 0.00 0.03
11:53 am 11:53 Cloudy with Light Snow 26 -3.3 21 -6.1 81 81 W 13 20 30.00 1016 3 4 0.00 0.03
11:56 am 11:56 Cloudy with Light Snow 26 -3.3 21 -6.1 81 81 WNW 10 17 30.00 1016 3 5 0.00 0.03
12:03 pm 12:03 Cloudy with Light Snow 26 -3.3 21 -6.1 81 81 W 10 17 30.00 1016 3 4 0.00 0.03
12:36 pm 12:36 Cloudy 26 -3.3 19 -7.2 75 75 WNW 10 17 30.00 1016 7 11 0.00 0.03
12:53 pm 12:53 Cloudy with Light Snow 26 -3.3 19 -7.2 75 75 W 10 17 29.98 1015 7 11 0.00 0.03
1:53 pm 13:53 Cloudy 27 -2.8 19 -7.2 72 72 W 12 19 29.98 1015 7 11 0.00 0.03
2:53 pm 14:53 Cloudy 27 -2.8 20 -6.7 75 75 WSW 13 20 29.98 1015 10 16 0.00 0.03
3:53 pm 15:53 Cloudy 26 -3.3 20 -6.7 78 78 WSW 9 15 29.98 1015 10 16 0.00 0.00
4:53 pm 16:53 Cloudy with Light Snow 26 -3.3 19 -7.2 75 75 W 10 17 30.01 1016 6 10 0.00 0.03
5:53 pm 17:53 Cloudy with Light Snow 25 -3.9 19 -7.2 78 78 W 10 17 30.02 1017 5 8 0.00 0.03
6:53 pm 18:53 Cloudy 25 -3.9 16 -8.9 69 69 W 10 17 30.04 1017 10 16 0.00 0.03
7:53 pm 19:53 Cloudy 24 -4.4 17 -8.3 75 75 W 9 15 30.06 1018 10 16 0.00 0.03
8:53 pm 20:53 Cloudy 24 -4.4 15 -9.4 68 68 WNW 10 17 30.06 1018 10 16 0.00 0.03
9:22 pm 21:22 Cloudy 24 -4.4 15 -9.4 68 68 W 10 17 30.06 1018 10 16 0.00 0.00
9:53 pm 21:53 Cloudy 24 -4.4 16 -8.9 71 71 W 10 17 30.06 1018 10 16 0.00 0.00
10:05 pm 22:05 Cloudy 24 -4.4 16 -8.9 71 71 W 12 19 30.09 1019 10 16 0.00 0.00
10:25 pm 22:25 Cloudy 24 -4.4 16 -8.9 71 71 W 10 17 30.09 1019 10 16 0.00 0.00
10:53 pm 22:53 Cloudy 24 -4.4 16 -8.9 71 71 W 8 13 30.06 1018 10 16 0.00 0.00
11:15 pm 23:15 Cloudy 24 -4.4 16 -8.9 71 71 W 8 13 30.09 1019 10 16 0.00 0.00
11:53 pm 23:53 Cloudy 24 -4.4 16 -8.9 71 71 W 12 19 30.07 1018 10 16 0.00 0.00

Powered by AerisWeather